WICT2: Wichita River At Wichita Falls, TX

                                SHEF ID:       WICT2     Wichita Rv at Wichita Falls, TX
STATION TYPE:
Regulating: Stage = 18.50, Flow = 5482

PRECIP STAGE RIV-FLOW WTR-TEMP CONDUCT BAT-LOAD
in ft cfs F umho/cm volt
Ccp-Rev Ccp-Rev Ccp-Rev Ccp-Rev Ccp-Rev Ccp-Rev
(America/Chicago)
05/03 00:00 ---- 2.15 37 70.90 3876 12.05
05/03 01:00 ---- 2.14 37 70.32 3865 12.04
05/03 02:00 ---- 2.14 37 69.69 3802 12.02
05/03 03:00 ---- 2.13 36 69.15 3809 11.99
05/03 04:00 ---- 2.12 35 68.63 3831 11.97
05/03 05:00 ---- 2.12 35 68.09 3860 11.94
05/03 06:00 ---- 2.13 36 67.53 3902 11.94
05/03 07:00 ---- 2.12 35 66.94 3948 11.91
05/03 08:00 ---- 2.11 34 66.49 3991 11.93
05/03 09:00 ---- 2.11 34 66.38 4018 11.95
05/03 10:00 ---- 2.10 33 66.74 4045 12.82
05/03 11:00 ---- 2.09 33 67.62 4056 13.03
05/03 12:00 ---- 2.10 33 69.12 4048 12.70
05/03 13:00 ---- 2.08 32 70.92 3933 12.48
05/03 14:00 ---- 2.09 33 72.84 3907 12.34
05/03 15:00 ---- 2.09 33 74.71 3677 12.31
05/03 16:00 ---- 2.10 33 76.32 3436 12.26
05/03 17:00 ---- 2.10 33 77.20 3243 12.21
05/03 18:00 ---- 2.12 35 77.11 3214 12.17
05/03 19:00 ---- 2.10 33 76.23 3275 12.13
05/03 20:00 ---- 2.11 34 75.31 5514 12.09
05/03 21:00 ---- 2.10 33 74.28 5457 12.04
05/03 22:00 ---- 2.10 33 73.17 5290 12.08
05/03 23:00 ---- 2.10 33 72.12 5313 12.06
Data processed at Mon 04May2026 04:58 GMT

NOTICE: If you are parsing this page

Please convert to using our Data API. Starting early 2026 we will be migrating to: https://water.usace.army.mil with modern pages rendered in JavaScript. When this migration completes you will no longer be able to scrape this page! CWMSDataAPI (CDA)

Timeseries IDs (TSIDs)

TSIDs used from left to right in the data table
WFAL.Precip-Inc.Total.1Hour.1Hour.Ccp-Rev
WFAL.Stage.Inst.1Hour.0.Ccp-Rev
WFAL.Flow.Inst.1Hour.0.Ccp-Rev
WFAL.Temp-Water.Inst.1Hour.0.Ccp-Rev
WFAL.Cond-Water.Inst.1Hour.0.Ccp-Rev
WFAL.Volt-Battery Load.Inst.1Hour.0.Ccp-Rev

                            

All information presented herein is the property of the government of the United States of America and may be revised or deleted at any time without prior notice. Dissemination of this information without the expressed written consent of the Public Affairs Office, Tulsa District U.S. Army Corps of Engineers is strictly prohibited. These data are gathered electronically and, as presented, have NOT undergone any form of quality control. These data are NOT guaranteed to be valid or correct.